RH
56 75 74 67 52 45 59 67 71 65 61 71 72 72 60 53 59 60 58 56 57 59 56 57 56 59 51 52 48 56 64 66 75 81 92 93 93 93 93 99 98 87 74 62
62 70 57 58 61 65 68 71 64 64 64 71 78 73 59 57 52 54 52 52 56 59 58 60 56 54 53 55 46 54 62 64 75 85 93 91 96 92 94 96 93 81 79 69
57 57 55 61 69 64 67 69 70 82 78 77 79 58 40 41 53 55 60 62 61 61 60 62 61 55 53 55 44 46 61 63 76 93 89 98 98 96 94 99 94 81 75 68
63 56 60 70 71 66 62 63 75 88 88 78 71 57 50 46 52 50 47 55 59 63 65 66 64 58 52 57 48 42 56 63 76 90 98 100 100 100 97 98 86 69 66 62
53 64 66 64 64 65 64 72 85 86 94 88 73 82 57 55 44 40 39 46 53 62 67 65 64 57 54 59 51 38 51 61 73 85 87 98 99 99 98 99 88 68 78 88
70 61 63 60 65 66 69 71 72 82 85 82 70 79 68 56 55 38 41 46 54 59 63 66 59 60 58 60 52 39 44 51 70 84 85 89 93 99 98 99 100 92 98 100
64 72 66 64 62 67 73 69 67 58 76 67 78 85 67 46 47 43 40 49 60 67 70 71 70 66 60 62 52 41 42 48 64 82 85 83 92 94 98 96 98 90 98 98
73 48 69 67 61 71 82 68 70 29 55 63 79 83 57 51 55 56 56 66 70 72 72 74 72 67 64 64 53 41 40 46 51 75 83 86 92 95 96 99 100 97 99 98
67 48 58 68 66 59 80 83 71 88 84 88 73 62 38 44 48 48 53 58 62 61 60 63 62 61 62 64 51 41 39 41 47 63 75 80 86 88 92 93 94 98 98 90
64 54 54 66 64 70 69 69 68 79 40 40 48 54 55 42 52 48 45 46 50 52 56 60 60 57 55 62 51 43 38 39 41 48 69 69 70 82 84 84 84 84 84 83
68 64 44 73 81 82 89 89 84 69 66 51 54 53 58 52 40 50 50 53 55 55 54 54 54 48 50 60 54 44 40 39 39 42 54 65 62 59 66 66 66 69 67 70
66 76 82 52 67 63 71 72 75 69 47 86 70 63 38 47 51 52 54 54 52 60 56 48 47 49 49 59 56 45 42 37 33 35 43 49 54 54 48 45 47 49 50 50
66 59 62 33 49 67 74 79 74 65 69 83 65 39 28 44 42 43 48 38 34 36 38 38 42 46 49 52 55 47 44 35 32 35 39 44 46 47 47 45 42 41 39 38
56 64 42 42 22 52 72 78 83 72 88 80 64 48 25 23 34 35 34 37 39 41 44 45 46 44 45 46 47 48 44 40 35 36 38 39 39 39 38 38 39 40 41 41
66 76 83 74 71 67 61 55 73 90 71 69 47 58 35 40 41 37 36 41 41 40 41 42 42 42 40 41 44 47 45 42 38 38 39 36 35 37 39 40 40 40 40 42
79 74 81 88 74 78 80 68 68 61 60 73 62 57 37 35 38 44 39 43 43 40 37 38 40 42 40 37 40 46 47 44 41 38 35 33 35 36 37 41 45 48 49 49
82 85 78 72 64 68 51 47 58 72 70 57 64 48 39 40 43 44 41 42 43 40 36 36 36 39 37 34 37 44 47 47 44 40 36 35 36 36 37 41 48 51 53 52
89 82 77 87 65 43 26 38 52 60 62 63 58 54 50 48 47 50 44 47 40 35 31 33 34 37 34 33 37 42 48 51 49 47 41 38 39 39 41 45 47 50 51 53
75 77 72 79 83 50 29 45 55 44 31 47 54 50 51 50 48 41 37 29 34 30 31 34 37 38 35 37 35 44 50 53 54 50 45 42 39 42 45 48 46 46 50 52
78 67 67 84 72 51 27 30 39 36 30 30 47 44 45 39 53 50 34 36 36 37 37 39 39 38 37 31 36 44 48 55 56 52 47 43 37 40 44 44 46 47 49 50
95 90 86 77 85 68 45 40 38 38 29 24 29 36 37 43 47 42 39 42 40 41 41 41 44 44 37 38 43 49 51 55 41 50 51 48 41 39 40 43 48 49 53 59
89 94 92 81 91 84 48 47 42 34 34 38 43 47 53 54 53 52 49 48 48 49 49 48 48 46 42 41 46 52 58 38 44 49 52 50 45 42 43 47 51 54 57 64
62 59 76 71 69 48 48 47 42 46 49 51 52 54 57 57 57 54 54 51 50 51 52 50 47 48 46 46 46 54 38 43 46 52 54 52 48 45 45 50 55 61 63 68
52 49 60 60 48 49 47 46 49 48 53 54 57 57 58 61 58 58 56 55 55 54 54 52 51 52 50 48 49 48 45 50 49 52 55 55 54 54 54 54 57 60 66 74
57 54 61 67 57 54 52 51 49 52 54 56 57 62 62 62 63 62 62 61 59 58 57 57 58 57 55 53 54 53 52 54 55 54 56 58 57 64 63 59 59 59 52 49
58 61 68 69 49 54 56 51 57 60 61 61 63 64 61 62 65 64 66 64 64 63 63 64 64 64 64 64 63 60 59 59 57 60 60 60 63 64 68 69 72 67 53 51
Wind_Speed
5 7 3 1 3 3 4 1 3 4 3 5 4 16 22 15 7 9 9 8 7 7 6 6 8 7 9 10 13 16 21 22 22 22 20 20 21 22 23 23 22 21 20 21
6 4 2 1 2 2 2 0 3 5 3 3 6 21 15 5 4 4 5 6 8 5 5 8 7 7 8 11 13 17 20 21 20 18 16 16 18 23 25 26 25 19 19 16
5 3 2 1 1 2 0 1 1 4 7 2 9 7 4 1 3 4 6 6 7 9 9 7 7 8 9 11 13 16 18 17 18 15 15 14 14 17 18 23 25 21 17 17
5 1 1 1 1 2 3 2 0 4 5 3 5 4 5 3 6 4 7 7 9 9 8 8 10 10 10 11 12 13 16 15 15 14 13 13 13 16 20 22 22 24 17 14
1 4 1 1 1 2 2 2 2 1 1 3 0 1 7 3 6 6 5 5 5 5 6 8 9 11 12 11 11 12 14 14 14 13 13 13 15 16 20 18 15 13 13 13
2 1 2 1 1 0 2 3 5 3 1 2 1 2 6 4 6 3 3 3 6 6 6 7 13 12 14 11 11 11 12 13 13 12 12 13 14 16 18 16 14 13 12 13
4 1 1 1 2 2 6 5 3 5 3 3 2 1 10 5 5 3 3 6 6 6 6 7 7 12 13 12 11 10 10 11 12 11 11 12 12 12 11 13 11 9 9 11
3 5 1 1 2 4 2 4 4 4 2 5 2 6 6 4 4 6 6 7 7 8 6 7 10 14 15 13 12 10 10 10 8 9 9 10 11 11 9 9 8 6 6 9
2 3 1 2 2 3 2 2 2 5 1 2 3 7 10 5 5 5 8 6 7 7 6 7 9 12 15 15 14 12 11 9 6 6 6 7 9 8 11 9 7 6 5 6
4 3 0 1 2 3 1 5 3 2 1 4 5 5 5 5 4 2 3 5 7 7 7 7 9 14 15 17 15 13 12 10 7 6 5 5 5 5 7 7 7 7 5 5
3 3 3 1 5 6 2 0 3 3 2 2 3 7 6 5 3 4 6 7 8 9 10 10 12 20 18 16 16 16 15 13 10 8 6 6 5 4 4 5 5 4 5 5
2 4 3 6 2 1 2 4 4 3 3 1 1 7 2 5 4 4 7 8 10 9 11 12 16 18 18 16 19 20 17 16 13 10 9 7 7 6 5 4 3 2 2 2
5 0 4 4 4 3 3 4 3 3 2 6 4 6 1 2 3 5 8 11 14 11 12 11 10 11 15 14 18 21 20 20 16 14 12 11 9 8 8 6 5 3 2 1
5 3 5 6 3 3 4 5 6 5 3 3 10 10 18 17 14 14 15 11 12 12 11 9 8 9 14 15 16 22 23 21 19 17 15 14 13 11 10 9 7 5 5 3
3 4 4 6 10 6 11 14 10 13 11 8 1 10 15 10 11 16 14 11 13 13 11 8 7 8 16 16 16 19 24 22 21 19 18 18 14 13 11 10 9 8 7 5
2 2 1 5 8 6 9 16 17 18 18 19 25 28 23 21 9 7 11 8 11 12 12 13 10 10 15 18 20 18 23 27 25 25 25 21 19 17 15 13 11 9 7 6
4 2 2 5 3 9 9 8 11 5 4 16 12 13 6 11 7 6 8 11 11 11 13 14 13 14 18 20 19 21 21 24 28 30 28 26 24 22 19 15 13 11 10 8
5 4 2 4 7 2 3 1 8 10 6 15 10 8 7 9 10 8 11 8 10 9 13 14 17 21 23 20 20 19 17 19 28 30 30 29 27 25 20 18 15 13 12 11
3 4 2 2 2 10 3 1 5 4 6 7 16 13 9 9 7 6 8 3 7 12 16 20 26 27 27 29 27 20 19 20 24 32 34 32 29 26 23 22 20 18 16 14
4 2 5 3 2 5 1 1 2 2 3 5 2 5 6 6 9 11 6 9 13 18 23 24 28 29 26 33 34 24 23 20 27 33 37 35 33 31 29 26 22 20 18 16
3 1 10 8 4 9 8 4 2 2 2 4 2 6 7 5 8 18 17 16 21 23 27 29 27 24 28 30 26 25 25 25 33 29 30 32 31 32 30 25 24 21 19 16
6 6 5 5 3 9 4 3 4 1 1 4 6 5 9 16 19 19 18 18 19 19 25 25 20 25 30 30 21 25 24 33 28 24 26 29 28 29 28 27 24 22 20 19
3 6 5 11 8 3 3 5 4 3 6 6 7 14 15 19 20 21 19 20 17 23 24 26 22 25 31 31 27 23 33 29 23 21 25 28 29 30 30 30 27 23 21 21
4 4 4 2 5 10 7 5 6 5 6 11 10 14 14 18 19 21 19 19 17 23 23 25 23 21 24 30 27 29 32 29 21 22 25 26 29 29 31 30 29 27 26 23
5 2 9 7 10 13 9 6 13 13 15 18 14 11 14 14 17 16 16 17 18 23 25 25 23 22 26 30 28 31 32 26 24 24 23 25 27 26 28 32 33 31 29 28
6 19 13 15 17 13 13 13 9 16 16 14 11 14 15 12 13 14 14 20 21 22 27 25 25 24 26 27 29 32 25 20 22 21 21 22 23 25 25 25 22 25 25 22
Wind_Direction
11 64 79 101 41 103 107 96 279 264 297 320 259 281 288 297 258 265 270 267 260 261 268 259 279 277 299 316 330 338 342 345 344 343 339 336 331 331 331 329 320 307 295 287
30 82 195 190 92 102 95 27 294 275 279 279 313 293 290 275 260 223 245 257 252 251 264 275 264 271 295 321 335 345 343 342 340 335 333 322 312 323 326 328 328 322 314 301
111 147 145 142 61 39 323 190 313 254 321 233 313 285 313 254 263 259 255 251 257 250 262 267 280 285 303 325 334 337 338 334 338 341 333 330 323 325 329 325 333 336 325 300
82 103 117 86 290 112 325 190 312 307 5 295 12 287 290 278 293 265 262 241 252 256 256 264 279 289 303 313 318 323 333 333 339 345 330 334 324 320 323 326 338 340 337 319
198 147 162 223 259 182 264 22 332 3 80 348 356 53 270 359 269 251 245 251 261 270 262 266 275 281 286 298 304 313 323 335 343 342 341 336 333 334 337 335 338 347 335 328
84 228 182 246 13 144 56 62 39 57 2 8 292 115 276 200 207 200 246 275 296 300 287 270 277 276 278 286 291 300 311 333 343 344 345 341 337 339 339 336 347 356 348 3
347 339 291 172 52 25 56 52 337 354 7 232 303 333 250 262 241 227 257 293 298 293 284 276 277 276 278 280 277 285 297 320 341 345 344 345 342 341 334 336 345 348 9 19
87 323 190 172 173 176 80 130 141 241 312 289 12 237 251 219 281 276 273 271 289 285 280 276 272 278 275 270 262 268 278 297 325 341 339 341 346 347 334 340 348 5 21 27
138 264 281 211 170 127 156 53 162 100 344 316 248 279 286 282 278 261 266 282 282 283 284 282 296 289 279 262 251 252 256 268 288 321 328 338 335 342 333 341 352 7 28 28
182 338 218 2 97 38 191 152 56 25 0 298 285 281 243 318 286 243 249 279 292 288 291 287 284 288 282 260 248 244 250 259 259 275 288 303 313 314 318 337 355 1 20 22
133 115 281 74 197 183 134 179 61 119 146 201 306 274 214 229 291 303 303 293 283 288 284 282 281 293 287 267 242 236 238 244 244 244 250 257 265 280 294 313 334 351 1 20
169 144 259 214 131 106 177 190 163 131 215 188 148 274 275 256 277 298 290 285 286 279 284 292 293 294 290 262 239 232 234 234 235 234 233 234 235 244 249 257 276 306 329 351
183 104 337 353 14 9 237 205 159 112 96 201 163 260 166 270 286 257 269 293 298 295 298 302 303 293 290 276 248 237 233 232 230 228 227 225 232 239 248 254 256 253 242 234
127 154 193 205 192 143 217 202 198 171 175 197 230 277 275 293 317 316 312 299 293 297 295 293 298 290 294 285 264 243 239 236 232 228 228 229 225 226 231 241 245 254 268 259
132 229 191 260 260 237 245 242 209 208 207 217 267 232 272 282 296 301 301 300 309 310 309 295 289 286 294 298 286 253 241 234 230 229 230 233 234 232 231 232 234 237 236 241
24 268 97 273 271 258 264 248 232 232 237 247 259 275 284 280 296 292 292 295 306 307 311 306 289 279 282 290 297 282 247 231 222 222 226 227 225 226 226 226 227 230 234 238
158 174 26 271 318 300 280 249 186 192 221 222 230 239 282 297 283 273 298 306 296 300 310 305 302 288 279 292 300 291 276 245 225 224 225 223 221 223 224 223 222 223 225 229
141 136 165 286 339 288 272 124 173 199 228 214 255 271 278 269 283 287 276 257 290 299 314 311 309 301 289 293 296 297 281 252 237 230 229 225 222 223 219 216 221 224 224 225
155 139 283 271 275 293 313 144 137 175 295 219 232 265 285 293 306 288 262 246 259 284 289 293 299 296 287 291 299 291 275 253 235 233 233 231 225 222 218 218 216 214 218 224
140 127 176 152 223 257 296 335 158 172 358 43 184 279 263 312 315 317 285 294 284 278 292 291 295 301 292 295 296 283 272 256 243 239 235 233 225 221 219 219 216 217 219 219
104 145 221 228 267 286 266 255 261 3 272 333 209 265 276 279 266 289 291 284 285 283 288 289 292 286 286 300 297 273 266 255 263 257 245 239 230 225 223 220 216 215 213 212
173 157 193 184 223 265 171 59 175 246 253 279 273 258 293 301 300 299 296 295 297 295 290 284 285 288 292 301 291 270 254 269 268 262 248 240 234 226 224 219 216 215 210 203
249 203 186 192 214 228 231 253 294 266 280 284 296 315 308 306 304 306 307 305 299 298 296 297 287 287 291 297 295 267 276 270 263 252 245 238 229 222 221 216 214 211 210 210
247 187 228 144 247 257 297 286 254 268 273 315 295 303 300 298 304 306 307 307 305 303 301 301 294 284 285 296 293 286 293 275 255 244 241 232 224 217 216 216 215 209 206 207
209 202 252 259 270 285 279 292 302 306 313 309 308 293 295 303 302 306 306 309 309 307 307 304 299 294 291 296 294 295 297 273 251 246 238 226 220 207 208 212 210 211 222 219
204 249 257 265 277 284 286 285 296 301 301 303 309 312 308 305 299 305 303 305 306 308 310 310 308 304 300 302 300 304 304 276 255 240 232 224 214 208 204 200 204 220 228 226